Location: C.E.K. Mees Observatory
(42.7003°N, 77.4088°W)
Time: 13:42:58
(UTC-04:00)

ISS - Pass Details

Date: 14 October 2017
Orbit: 401 x 408 km, 51.6° (Epoch: 22 October)

Event Time Altitude Azimuth Distance (km) Brightness Sun altitude
Rises 19:25:38 0° 301° (WNW) 2,323 1.1 -11.3°
Reaches altitude 10° 19:27:44 10° 298° (WNW) 1,462 0.0 -11.7°
Maximum altitude 19:30:58 62° 217° (SW) 460 -3.4 -12.3°
Enters shadow 19:33:46 13° 137° (SE) 1,285 -1.7 -12.8°
